Theta_e
283 283 283 283 283 283 283 283 282 282 282 281 281 281 281 280 280 279 280 281 281 281 281 281 281 281 281 281 280 282 282 282 281 281 281 281 281 281 281 281 281 282 282 282 282 283 283 284 285 285 286 286 285 285 286 286 286 286 286 286 285 285 286 287 287 287 284 284 286 287 287 288 288 287 287 287 287 287 288 287 287 287 287 287 287
283 282 282 282 282 282 282 282 282 280 281 280 280 280 280 280 279 279 280 280 280 280 280 280 281 280 279 280 279 280 280 280 279 280 279 280 280 280 280 280 280 281 281 282 282 282 282 283 284 284 284 285 285 285 285 286 286 286 285 284 286 285 284 286 286 286 283 283 282 283 284 286 288 288 286 287 287 287 287 287 287 286 286 287 287
281 281 281 281 282 282 281 281 280 280 280 280 280 279 279 279 279 279 279 279 279 280 280 280 280 280 279 279 279 278 280 280 279 279 279 279 279 279 279 279 279 279 281 281 281 282 282 282 283 283 283 283 283 283 284 284 284 284 284 283 283 285 285 286 286 286 282 284 284 282 281 281 285 286 287 286 286 286 286 286 287 286 285 286 286
280 280 280 280 280 280 280 280 280 280 279 279 279 278 278 278 278 279 279 279 279 279 280 280 279 278 278 278 279 278 277 279 278 278 278 278 277 278 278 278 278 278 279 280 281 281 282 281 281 281 281 282 282 282 282 282 283 283 283 283 283 281 283 283 286 285 284 282 278 281 281 280 278 281 284 286 286 285 285 285 285 285 285 285 286
280 279 280 279 279 279 279 279 280 279 279 278 278 277 277 277 278 278 278 278 279 279 278 279 278 276 276 277 277 277 277 277 276 275 276 276 277 276 276 276 277 277 278 280 279 279 281 280 279 279 279 280 280 280 281 281 281 282 282 282 282 281 280 281 283 284 284 285 282 279 278 278 279 282 282 282 286 285 284 284 285 285 285 285 285
280 279 279 279 279 279 279 279 278 278 278 278 278 277 277 277 277 277 278 277 277 277 276 276 275 274 273 273 272 273 272 273 272 272 274 274 274 274 275 275 276 276 277 278 278 278 277 276 276 276 276 277 278 278 279 280 280 280 280 281 280 281 281 280 279 283 283 284 284 283 282 278 278 280 280 276 284 285 285 285 284 285 285 285 285
280 280 279 279 279 279 278 278 277 277 277 278 277 276 275 275 275 275 275 276 276 275 274 274 273 273 272 272 273 272 272 273 274 274 274 274 274 273 273 274 275 275 275 276 277 276 274 274 274 275 275 276 276 277 277 278 278 278 278 279 279 280 280 278 278 279 282 283 283 283 283 283 282 279 277 279 277 282 284 285 284 284 284 284 284
279 279 279 279 279 278 277 276 275 275 276 276 276 275 273 273 274 274 274 275 275 275 273 273 272 273 272 272 273 273 273 273 274 273 274 274 272 272 273 273 274 275 274 275 275 274 273 273 274 274 274 274 275 276 276 276 276 276 277 277 277 278 278 277 277 279 278 278 282 282 282 282 283 282 281 278 277 276 278 283 284 285 284 284 284
280 279 278 277 276 276 276 275 275 274 274 275 275 274 274 274 274 274 274 274 275 275 273 273 273 272 272 273 272 273 274 273 273 273 273 273 271 272 272 273 273 274 274 273 274 273 272 272 273 272 272 273 274 274 274 274 274 274 274 274 274 275 276 276 275 276 278 278 280 280 280 280 281 281 281 281 277 276 277 279 280 283 284 284 284
279 278 277 276 276 276 275 275 274 274 274 275 275 275 274 274 273 273 273 273 273 273 273 272 273 272 272 272 271 272 273 272 272 272 271 271 270 271 271 272 272 273 273 273 273 273 271 272 271 271 271 272 273 272 272 272 272 272 273 273 273 273 274 275 275 275 277 278 279 279 278 278 278 278 279 279 279 279 276 277 279 279 278 282 285
278 277 277 276 276 276 276 275 274 274 274 274 275 274 274 274 273 273 273 273 273 272 272 272 272 272 271 271 271 271 271 271 270 270 270 270 269 270 270 271 272 271 272 272 272 272 271 271 270 270 271 271 271 271 271 271 271 271 271 272 272 272 273 273 273 274 275 275 276 277 277 278 277 276 277 278 278 277 277 277 279 280 279 279 282
278 277 277 277 276 276 275 274 274 273 273 273 274 274 274 273 273 273 273 272 272 272 271 271 271 271 271 271 271 271 271 270 269 269 269 268 268 268 270 270 270 270 271 271 271 271 270 270 270 270 270 270 270 270 270 270 270 271 271 271 271 271 272 272 272 272 273 274 275 276 277 277 278 278 279 279 278 278 277 276 277 279 279 280 282
278 277 276 276 275 274 274 274 273 273 272 273 273 274 274 273 273 272 272 272 271 271 271 271 270 270 270 270 271 271 271 270 269 269 269 268 268 268 268 268 269 269 269 269 270 270 269 269 269 269 269 269 269 269 269 270 270 270 269 269 270 270 270 271 271 272 272 272 272 274 275 275 276 278 279 279 278 278 278 276 277 279 276 278 281
278 277 276 275 274 274 273 273 273 273 273 273 273 274 273 272 272 272 271 272 271 271 270 269 270 270 270 270 270 271 270 270 269 269 268 268 268 268 268 268 268 268 268 268 269 269 269 269 268 268 268 268 268 268 269 269 269 269 269 268 268 269 271 271 271 271 272 272 273 272 273 274 274 275 276 277 277 277 276 276 276 277 277 277 279
278 276 275 274 274 274 273 273 273 273 273 272 272 273 272 271 272 271 271 271 270 270 270 269 269 269 269 270 270 270 270 270 269 269 268 267 268 268 268 268 268 268 268 268 268 268 268 268 268 267 268 268 268 268 268 268 268 268 268 268 268 269 269 270 271 271 270 271 271 271 271 273 274 275 275 275 276 276 276 276 276 273 275 276 276
277 275 275 274 274 274 273 273 272 272 272 272 271 272 271 270 271 271 270 270 270 270 269 269 268 269 269 269 269 270 270 270 269 269 268 268 267 267 267 267 267 267 268 268 267 267 267 267 267 267 267 267 267 267 267 267 267 267 267 267 267 268 268 268 269 269 269 270 270 271 270 271 273 274 275 276 276 276 277 278 277 275 273 271 275
278 276 275 274 274 273 273 273 272 272 272 271 271 271 270 270 270 270 270 270 270 269 269 269 268 268 268 268 268 268 269 268 268 267 267 267 267 267 267 267 267 267 267 267 267 267 267 266 266 266 266 266 266 266 266 266 266 266 266 266 266 267 267 267 268 268 268 269 269 269 269 270 271 272 273 275 277 277 277 277 277 276 275 272 271
278 277 276 275 274 273 273 273 272 271 272 271 271 271 271 270 270 269 269 269 269 269 269 268 268 267 267 267 268 268 268 268 268 267 267 266 266 267 267 266 266 266 266 266 266 266 266 266 265 265 266 266 266 266 266 266 266 265 266 266 266 267 266 267 268 268 268 268 268 268 268 268 270 270 271 272 273 275 276 276 276 277 276 273 273
277 276 276 275 274 274 273 272 272 272 272 271 271 271 271 270 270 269 268 269 269 269 269 268 268 267 267 267 267 267 268 268 268 267 266 266 265 266 265 265 266 266 266 266 265 265 265 265 265 265 265 265 265 265 265 265 265 265 265 265 266 266 266 266 267 267 267 267 267 267 268 268 269 268 269 270 271 271 273 275 276 276 276 275 274
278 277 276 275 275 273 273 272 272 271 271 271 271 270 270 270 269 268 268 268 268 268 268 267 267 267 267 267 267 267 267 267 267 266 266 265 265 265 265 265 265 265 265 265 265 264 264 264 264 264 264 265 265 265 265 265 265 265 265 265 265 265 265 265 265 266 266 266 266 266 266 267 268 268 268 268 269 270 271 272 273 275 275 275 275
279 278 277 275 274 273 273 272 272 271 271 271 270 270 269 269 269 268 267 267 267 267 267 267 267 266 266 266 266 266 266 267 266 266 265 265 265 265 265 265 265 264 265 264 264 264 264 264 264 264 264 264 264 264 264 264 264 264 264 264 264 264 264 264 265 265 266 266 265 265 265 266 267 266 266 267 268 269 269 270 272 273 273 275 274
279 278 276 275 274 273 273 272 272 271 270 269 270 269 269 268 269 268 268 267 267 267 266 266 266 266 266 266 265 266 266 266 265 265 265 265 265 264 264 264 264 264 264 264 264 264 264 263 263 263 263 263 263 263 264 264 263 263 263 264 263 264 263 263 264 264 264 264 265 264 264 264 265 265 265 266 267 268 269 269 270 270 271 273 275
278 277 276 275 274 273 273 272 271 270 270 269 269 268 268 268 268 268 267 266 267 266 266 266 266 265 265 265 265 265 265 265 264 264 264 264 264 264 264 263 263 263 264 264 263 263 263 263 263 263 263 263 263 263 263 263 263 262 262 262 263 263 263 263 263 263 263 264 263 263 263 264 265 264 265 266 266 267 268 268 268 270 270 270 272
277 276 276 275 274 273 273 271 271 270 270 269 269 268 268 267 268 268 267 266 266 266 266 266 265 265 265 265 265 265 264 264 264 264 264 264 264 263 264 263 263 263 263 263 263 263 262 262 262 262 262 262 262 262 262 262 262 262 262 262 262 263 263 262 262 262 262 262 262 262 262 263 264 264 264 265 266 266 267 267 268 269 270 271 272
276 275 275 274 273 273 272 272 271 270 270 269 268 268 267 267 267 267 267 267 266 266 266 265 265 264 264 264 264 264 264 264 263 263 263 263 263 263 263 263 263 262 262 262 262 263 262 262 261 261 261 261 261 262 261 261 261 262 262 261 262 261 261 261 262 262 263 262 262 262 262 263 263 263 263 264 265 265 265 265 265 266 267 269 271
276 275 274 273 273 273 272 271 271 270 270 269 268 267 267 267 267 267 266 266 266 266 265 265 264 264 263 263 263 263 263 263 263 263 263 263 263 262 262 262 262 262 262 262 261 261 261 261 261 261 261 261 261 261 260 261 261 261 261 261 261 261 261 261 262 262 262 262 262 262 263 263 263 262 263 264 264 264 265 265 265 266 267 267 268
276 275 275 274 273 272 271 271 270 270 269 268 267 267 267 266 266 266 266 266 266 265 265 264 264 263 263 263 263 263 263 263 262 262 262 262 262 262 262 261 262 261 261 260 260 260 260 260 260 260 260 260 260 260 260 260 261 261 260 260 260 260 261 261 261 262 262 263 263 263 263 263 263 263 263 263 263 264 264 264 265 265 266 266 266
276 274 273 273 272 271 271 270 270 269 269 268 267 267 266 266 265 266 266 265 265 265 264 263 263 263 263 263 263 263 263 262 262 262 262 262 261 261 261 261 261 261 260 260 260 259 260 260 260 260 260 260 259 259 259 259 259 259 259 259 260 260 260 261 262 262 263 263 263 263 263 263 263 263 263 263 264 263 264 264 265 266 266 266 266
276 274 273 272 271 271 270 270 269 269 268 267 267 266 266 266 266 266 265 265 265 264 263 263 263 262 262 263 262 263 262 262 262 261 261 261 261 261 260 260 260 260 259 259 259 259 258 258 258 259 258 259 258 258 258 259 258 259 259 259 260 260 261 261 262 263 263 264 264 264 264 264 264 265 266 266 266 266 264 264 265 266 266 266 266
275 274 273 272 271 270 270 269 268 268 267 266 266 266 265 265 265 265 265 265 264 263 263 262 262 262 262 262 262 262 262 261 261 260 260 260 260 260 259 259 258 258 258 258 257 257 257 257 257 257 257 257 257 258 259 262 264 262 262 262 263 263 263 263 263 263 264 264 265 265 265 266 266 266 267 267 268 268 268 267 266 266 266 266 266
274 274 272 272 271 270 269 268 268 267 266 266 265 265 265 264 264 264 264 264 264 263 262 262 261 262 262 262 261 261 261 260 260 260 260 259 259 258 257 257 257 257 257 257 257 256 256 256 256 256 256 256 257 257 262 265 267 267 265 265 265 265 265 265 265 265 265 266 266 266 266 266 267 267 267 268 268 269 270 270 270 270 269 267 266
273 272 271 271 270 269 268 268 267 266 266 265 265 264 264 263 264 263 264 264 263 262 262 261 261 261 261 261 261 260 260 259 260 259 259 258 258 257 256 256 256 256 256 256 256 255 256 256 256 256 255 256 256 260 264 266 267 268 268 266 266 266 266 266 266 266 267 267 267 267 268 268 267 267 266 267 268 269 270 270 270 270 271 272 272
272 271 271 270 269 269 268 267 267 266 265 265 265 264 263 263 263 263 263 262 262 261 261 261 261 261 261 260 260 260 259 259 258 258 257 257 256 256 256 256 255 256 256 255 255 255 255 255 255 255 255 256 256 261 264 266 267 267 266 268 266 267 267 267 267 268 268 268 268 268 268 268 268 269 269 268 268 268 269 270 270 270 271 272 273
271 271 270 270 269 269 268 267 266 266 265 265 265 264 263 263 263 263 262 262 261 261 261 260 260 260 260 260 259 259 258 257 258 257 257 256 256 255 255 255 255 255 255 255 255 255 255 255 255 255 255 256 256 260 264 266 267 266 269 269 267 267 268 268 268 268 269 269 269 268 268 268 268 269 269 268 268 268 268 268 268 268 268 269 271
271 271 270 269 269 268 267 266 265 265 265 264 264 264 263 263 263 262 262 261 261 260 260 260 259 259 259 259 259 258 257 257 257 256 256 255 255 255 255 255 255 255 254 254 254 254 254 255 255 255 255 255 256 262 265 267 266 267 266 269 267 267 268 268 268 269 269 269 270 270 269 269 269 269 269 269 268 267 267 267 267 267 267 268 269
272 271 270 269 268 267 266 266 266 265 264 264 263 263 262 262 262 261 261 261 260 260 259 259 258 259 258 259 258 257 256 256 256 255 255 254 254 254 254 254 254 255 255 255 255 255 254 254 255 255 255 255 256 263 265 267 267 267 269 267 267 267 267 267 268 268 269 270 270 270 270 269 269 269 269 272 271 269 267 267 266 267 267 268 269
272 271 269 269 268 267 266 266 265 264 264 263 263 263 262 261 261 261 260 260 260 259 259 258 258 258 258 258 257 256 256 255 255 255 254 254 254 253 254 254 253 254 254 254 254 254 255 255 255 255 255 255 256 260 265 266 266 268 267 266 266 266 267 267 267 268 269 269 269 270 270 270 269 268 270 272 273 271 268 267 267 266 267 268 268
271 270 269 268 267 267 266 265 264 264 264 264 263 262 261 260 260 260 260 259 259 258 258 257 258 258 257 257 257 256 255 255 255 254 254 254 254 254 254 254 253 253 253 254 254 255 255 255 255 255 255 255 256 260 265 266 266 268 268 265 266 266 266 266 267 268 269 269 269 271 271 270 269 268 271 272 273 270 267 267 267 266 266 267 268
270 269 267 267 266 266 265 264 264 263 263 263 263 262 260 259 259 259 259 257 257 257 257 257 257 257 257 257 256 256 255 255 254 254 253 253 253 253 254 254 254 254 254 254 255 254 255 255 255 255 257 256 256 258 263 265 266 267 266 265 265 265 265 266 266 267 268 268 268 269 270 270 270 270 272 272 272 270 268 268 267 267 266 267 268
269 269 268 267 266 265 264 263 263 263 264 263 262 261 260 259 259 259 258 257 257 257 258 257 257 257 256 256 256 256 255 254 253 253 253 253 253 253 253 254 253 254 254 254 255 254 254 254 255 256 256 256 256 257 260 265 266 267 268 265 265 264 264 265 266 266 266 266 267 268 270 271 272 272 273 273 273 273 270 269 269 267 267 267 270
269 268 267 266 265 264 263 263 263 263 263 263 262 260 259 259 258 257 256 257 258 257 258 257 257 256 256 256 256 256 254 254 254 253 253 253 253 253 253 253 253 253 253 253 253 253 253 254 255 256 256 257 258 258 260 265 265 266 267 267 264 264 265 265 265 265 265 265 266 267 268 270 271 272 273 274 274 274 273 271 270 268 269 271 272
269 267 266 265 265 264 263 263 263 263 263 262 261 260 259 258 257 256 257 258 258 257 257 257 256 256 256 256 255 255 254 253 253 253 252 252 253 253 253 253 253 253 252 252 252 253 253 254 255 256 257 258 259 260 259 263 265 266 266 268 265 265 266 265 264 264 264 265 265 265 266 268 270 271 271 272 273 274 274 272 271 273 274 274 272
267 266 266 265 263 263 263 263 263 263 263 262 261 259 258 257 256 257 258 258 258 257 257 256 256 256 255 254 254 254 253 253 252 253 252 251 252 252 252 252 252 252 252 252 252 253 253 254 255 257 258 258 259 259 261 260 263 265 266 267 267 267 268 266 264 263 263 264 265 265 266 268 269 270 270 271 272 273 273 272 273 274 274 274 273
267 266 265 264 263 263 262 262 263 263 262 261 260 258 257 256 257 258 258 257 257 257 256 256 255 255 254 254 254 253 253 253 252 252 252 251 251 252 252 252 252 252 252 252 253 254 254 254 255 256 257 258 259 260 260 260 260 264 265 266 267 268 268 265 264 264 264 264 264 265 266 269 269 270 271 271 272 272 271 273 274 274 274 273 272
266 265 265 264 262 262 262 262 262 262 262 261 260 258 257 256 257 258 257 256 256 256 255 254 254 254 253 253 253 253 253 252 252 252 251 252 252 252 251 252 252 252 252 252 253 254 254 254 255 255 256 258 259 259 259 260 261 261 265 266 266 267 267 265 263 264 264 263 265 268 268 268 268 268 269 268 268 270 272 272 272 272 273 272 271
266 265 264 263 262 262 261 261 261 261 261 260 259 258 256 256 257 257 257 256 255 254 254 253 253 253 253 253 252 252 252 252 252 252 252 252 252 251 252 252 252 252 252 252 253 254 254 255 255 256 256 257 258 258 258 259 260 260 261 263 266 265 264 265 264 263 264 265 266 266 266 265 264 264 263 263 264 265 268 269 270 271 271 271 271
264 265 264 263 262 261 260 260 260 261 260 260 259 258 258 258 257 257 257 256 255 254 253 253 253 253 253 253 252 252 252 252 252 253 253 253 253 252 252 252 252 252 252 253 253 254 254 255 255 255 256 257 257 257 258 258 259 259 259 261 262 262 263 264 263 262 262 261 262 262 262 263 262 263 263 263 263 264 264 265 265 267 268 270 271
265 264 263 262 261 260 260 259 259 260 260 259 258 258 258 258 257 257 256 255 253 253 252 253 253 253 253 253 252 251 251 252 252 252 252 252 252 252 252 251 252 252 252 252 253 254 254 254 255 256 256 256 256 257 257 257 257 258 259 261 261 261 261 262 260 260 260 260 260 261 261 260 260 259 260 260 260 261 262 262 263 264 265 266 268
263 263 262 261 261 260 260 259 259 259 259 258 258 258 258 257 257 256 255 254 253 252 252 252 252 252 252 252 252 252 252 252 252 252 252 252 251 251 251 252 252 253 254 254 254 255 255 256 256 256 255 254 255 255 256 259 258 260 260 260 260 260 261 261 261 261 259 259 259 258 258 257 257 257 258 258 258 259 260 260 261 262 263 263 264
264 263 262 261 260 260 259 258 258 259 258 258 257 257 257 257 256 256 255 253 252 252 252 252 252 252 252 252 252 252 252 252 252 251 251 251 253 254 254 253 254 257 258 259 259 256 257 257 257 257 257 255 255 256 259 260 256 259 261 262 262 263 263 261 260 260 259 257 256 256 256 256 256 256 256 256 257 257 258 258 259 261 261 261 262
263 262 261 261 260 260 259 258 258 258 258 257 257 257 257 256 256 255 254 253 252 251 252 252 252 252 253 252 252 252 252 252 252 251 251 250 251 252 257 259 258 257 258 260 258 257 258 259 258 256 257 259 259 259 256 256 257 257 260 262 261 262 262 261 260 257 256 255 255 254 254 255 255 255 255 255 256 256 257 257 258 259 260 260 260
Wind_Speed
12 13 13 14 14 12 12 11 12 14 14 14 14 14 14 12 12 14 11 11 10 9 9 9 9 9 8 9 8 8 7 7 7 7 8 8 9 10 9 9 10 10 10 10 9 8 8 8 8 8 8 7 7 7 7 8 7 7 7 7 8 9 8 7 7 6 9 11 10 10 10 9 11 10 9 8 8 6 4 4 4 4 5 4 4
13 13 13 13 12 13 12 11 13 15 14 14 15 14 13 13 13 11 9 9 10 10 9 9 9 8 7 7 7 6 6 6 6 6 7 7 8 9 9 9 10 10 10 10 9 9 9 8 8 8 8 7 7 8 8 7 8 7 7 7 6 8 8 7 7 6 8 9 11 11 11 11 10 7 9 9 7 5 5 5 6 6 6 5 4
13 13 12 12 13 13 12 12 12 12 13 13 13 13 14 12 11 10 9 9 10 10 9 9 8 8 8 7 7 6 5 5 5 6 6 7 7 8 8 9 10 9 10 10 8 9 8 8 8 8 8 8 8 8 8 8 8 8 8 8 8 7 8 7 7 5 8 8 10 12 11 10 5 6 8 6 6 7 6 7 7 6 6 5 4
12 12 12 12 12 12 12 12 11 11 11 12 13 13 11 11 10 10 9 9 10 11 9 8 8 9 7 7 6 6 5 5 5 5 6 7 7 8 8 9 10 10 10 9 8 8 8 8 8 8 8 9 9 9 9 9 8 8 8 9 8 9 8 7 6 6 6 7 7 6 10 10 14 5 5 4 7 9 8 7 5 5 5 6 5
11 11 11 11 12 13 12 12 11 11 11 12 12 12 8 11 11 10 9 10 10 11 11 9 8 8 7 6 5 5 4 4 5 6 6 7 7 9 9 10 10 9 9 9 9 9 9 9 10 10 10 9 9 8 8 8 8 8 9 8 9 9 10 9 8 7 7 6 8 8 8 7 8 10 11 12 8 7 7 7 7 8 7 7 6
11 11 11 11 11 11 12 13 13 12 11 10 10 11 10 10 11 11 9 9 9 10 11 9 8 8 8 7 7 7 6 7 8 9 9 9 9 9 10 10 10 9 9 9 9 9 10 11 11 11 10 9 8 8 8 8 8 9 8 8 9 9 10 11 9 7 8 8 9 9 9 10 11 12 11 12 3 7 9 9 10 9 8 7 7
10 10 10 10 10 11 12 13 12 12 10 8 9 10 10 9 10 9 8 7 7 8 11 8 8 7 8 7 6 6 6 6 5 6 6 7 8 10 8 9 8 8 9 9 8 9 10 11 10 10 9 9 9 8 8 8 8 9 9 9 9 9 9 9 10 9 9 9 8 11 12 11 12 11 11 12 16 9 8 8 7 8 9 9 10
8 9 10 10 10 10 11 11 11 10 8 7 7 7 9 10 9 9 7 7 7 8 10 10 8 8 8 7 6 6 6 7 7 7 7 7 9 10 8 8 8 8 9 9 7 9 10 10 10 9 9 9 9 8 8 8 9 9 9 10 9 8 9 8 9 9 9 9 10 11 12 13 14 15 14 12 14 17 16 10 13 11 11 11 11
8 8 9 9 9 9 9 9 8 7 7 6 6 7 7 8 9 8 8 8 8 9 10 10 8 8 7 7 7 6 6 5 6 6 7 8 9 9 9 9 8 8 8 9 8 9 9 10 9 9 9 9 9 8 9 10 10 10 10 9 9 9 9 10 9 9 10 10 10 11 12 12 12 13 14 14 13 13 18 15 15 11 13 11 10
8 8 8 7 7 6 6 6 6 6 6 6 6 7 7 7 8 9 9 8 9 10 10 10 9 8 7 8 9 8 7 6 6 7 8 9 10 10 9 8 8 8 8 8 8 8 9 10 9 9 9 9 8 9 9 9 9 10 10 10 10 11 9 9 9 9 10 11 11 11 10 11 11 11 11 12 15 16 17 16 14 15 15 13 10
5 6 6 6 5 5 4 5 5 5 6 7 7 8 7 8 8 9 8 8 9 10 11 10 9 9 7 9 9 8 8 8 8 8 9 10 10 10 9 9 8 8 8 7 8 8 9 9 9 9 9 8 9 9 8 8 9 9 9 11 11 11 9 10 11 11 11 11 12 11 12 12 11 11 11 11 13 14 14 16 14 14 15 17 13
3 3 3 3 3 3 3 5 6 8 8 9 8 7 8 7 8 8 8 9 9 9 10 10 9 8 8 9 9 7 7 7 9 9 10 11 10 10 9 8 8 8 8 7 8 9 9 8 9 9 8 9 9 8 9 9 9 9 9 8 9 10 10 10 10 11 11 10 12 11 11 12 13 13 13 13 13 14 15 17 15 13 16 16 12
3 2 2 2 2 3 4 6 7 9 9 9 9 7 7 7 8 9 9 9 9 9 9 10 9 8 8 8 8 6 6 7 7 7 9 9 9 9 9 8 8 8 8 8 9 11 9 9 9 9 9 9 9 9 10 10 10 9 9 10 10 10 10 10 9 10 11 10 10 11 11 12 13 12 13 13 13 13 15 17 16 14 16 16 13
3 3 3 2 2 2 4 5 6 6 7 8 8 7 6 7 7 8 8 8 8 8 8 9 9 8 8 8 8 6 6 6 6 7 8 8 8 8 8 8 8 9 9 9 9 10 9 10 10 10 10 10 10 10 10 10 10 9 10 10 11 10 9 11 11 11 10 11 10 10 10 11 12 12 13 14 14 13 14 15 15 13 16 17 14
4 3 3 3 3 3 3 4 4 5 6 6 7 6 6 7 6 8 8 8 9 8 7 9 9 9 8 8 7 7 6 6 6 6 8 9 8 8 8 8 8 8 9 9 10 10 11 10 11 11 11 11 11 10 9 10 10 9 9 10 9 9 11 11 10 11 11 12 12 11 11 11 12 12 12 14 14 14 14 14 13 15 16 15 16
4 4 3 2 3 2 2 2 3 5 5 5 7 6 6 7 7 8 8 8 8 8 8 8 9 8 9 8 8 8 6 5 6 6 8 8 8 8 8 8 8 9 9 9 10 10 10 11 11 11 12 11 10 11 11 10 10 10 10 9 10 8 10 12 11 12 12 13 13 12 11 11 11 12 12 12 13 14 15 14 14 15 15 17 15
5 4 4 3 3 2 2 1 2 4 5 4 6 6 6 7 6 8 8 7 8 8 7 7 8 9 8 8 8 9 8 7 7 9 9 8 8 8 8 9 9 9 9 9 10 10 10 11 11 11 11 11 11 11 11 11 11 11 10 11 11 10 10 11 10 11 11 11 11 12 11 11 11 12 13 13 13 14 14 14 14 15 15 16 15
5 4 4 4 3 3 2 1 1 4 6 4 6 5 4 6 6 8 8 8 8 8 8 7 9 8 8 8 9 9 8 7 8 9 9 8 9 8 8 8 9 9 9 9 10 11 11 11 10 11 11 11 11 11 11 12 11 10 11 11 11 11 11 10 10 10 11 11 12 11 10 11 10 10 11 13 13 14 14 14 14 15 15 17 16
6 6 6 5 4 3 2 1 1 3 5 3 5 5 5 6 5 7 8 8 8 7 7 7 8 7 6 8 9 9 8 8 8 8 9 9 10 9 9 9 10 10 9 10 10 11 10 10 11 11 10 11 11 11 12 11 11 11 11 11 11 11 11 11 11 11 11 11 12 12 11 10 11 11 12 12 12 13 15 14 15 14 16 17 18
7 7 6 5 4 3 2 2 3 4 5 4 5 5 6 6 6 6 7 8 8 8 8 8 7 7 8 8 8 8 8 8 8 8 9 9 9 9 10 10 10 10 10 11 10 11 11 11 11 11 12 12 12 11 11 11 11 11 11 10 11 12 13 13 13 11 10 11 12 13 13 11 11 11 12 11 11 12 13 15 15 15 16 16 17
7 6 5 5 5 3 3 3 3 3 4 4 5 6 5 6 6 6 7 8 7 7 7 7 7 8 8 9 9 9 9 8 8 9 9 9 9 9 9 10 10 10 11 11 11 11 12 11 12 12 12 12 12 12 11 11 11 12 11 12 13 13 14 13 12 13 12 13 13 13 14 14 14 13 12 12 12 12 13 14 15 16 16 16 17
7 5 5 5 5 4 4 3 3 3 4 4 5 5 5 6 6 6 6 6 7 7 7 8 7 7 9 9 9 8 8 8 10 10 10 10 9 10 10 10 11 11 10 11 12 11 11 12 12 12 12 12 13 13 12 11 12 12 13 11 12 13 14 14 13 13 13 11 13 14 14 13 13 14 14 14 12 13 12 12 13 15 16 17 17
6 6 6 6 6 5 5 5 4 4 4 4 4 5 6 7 7 6 6 7 7 8 7 7 8 8 9 9 9 8 9 10 10 10 10 10 10 10 10 10 10 10 10 10 11 12 12 12 13 12 13 12 12 12 11 12 13 14 15 14 14 15 15 15 15 16 15 14 14 14 15 13 11 13 14 13 13 14 13 14 16 14 16 17 19
7 6 6 6 6 6 5 5 4 4 4 5 5 5 6 6 7 6 7 8 8 7 7 8 8 9 9 9 9 9 10 9 9 9 10 11 10 10 10 10 11 10 11 11 11 12 12 12 13 13 12 12 13 13 14 14 15 15 15 16 16 16 16 16 16 15 15 14 14 15 14 14 14 14 14 14 13 13 13 14 15 15 16 17 17
8 8 8 8 7 7 6 5 4 4 5 5 6 6 7 7 7 7 7 8 8 7 8 8 9 10 10 9 10 9 9 10 10 9 11 11 11 10 10 11 11 11 11 11 11 11 12 12 12 13 14 14 14 15 15 15 15 15 16 16 16 15 15 16 16 16 16 16 16 16 17 15 15 16 15 15 15 17 15 15 16 15 15 15 15
9 7 8 9 7 6 5 5 5 5 6 6 7 7 7 8 8 8 8 8 8 8 8 9 9 9 9 10 9 9 9 10 10 10 11 10 10 10 11 10 11 12 12 12 12 11 11 14 14 14 15 16 16 15 15 16 16 16 16 15 15 16 16 16 16 16 16 16 16 17 17 17 16 17 17 16 16 18 17 17 17 16 15 15 16
9 9 8 7 7 7 6 6 6 6 6 6 7 7 8 8 8 8 8 8 8 8 8 9 9 9 9 9 9 9 9 9 9 10 10 10 10 11 11 11 11 11 12 12 12 13 13 14 15 15 16 15 15 15 15 16 16 16 16 16 16 16 17 16 16 17 17 17 18 18 18 18 18 17 18 17 17 17 16 19 17 17 16 16 17
9 8 9 9 7 6 6 7 7 7 7 7 7 7 8 8 8 8 8 7 6 7 8 9 9 9 9 9 8 9 9 9 9 10 10 10 10 11 11 11 12 14 14 14 15 14 14 14 15 15 15 14 15 15 15 16 16 16 15 16 16 17 17 17 18 18 18 18 19 19 18 19 19 18 19 19 18 17 16 17 16 15 15 16 16
15 10 9 8 7 6 7 8 8 8 9 8 8 8 7 8 8 8 7 8 7 8 9 9 9 9 9 8 8 8 8 9 10 10 11 11 11 11 11 12 13 14 13 14 14 14 14 15 15 15 15 14 14 14 13 14 14 15 15 16 17 17 18 17 17 17 18 18 19 20 19 21 23 24 30 27 25 21 15 16 17 16 16 16 17
13 11 9 7 7 7 8 8 9 9 9 8 8 8 8 8 8 8 8 7 7 8 8 9 9 9 9 9 9 9 9 10 10 10 11 11 11 12 13 13 13 13 13 13 14 14 13 14 15 15 14 14 14 13 18 26 24 18 17 14 13 14 15 15 16 17 18 19 19 19 21 31 33 32 31 33 35 35 33 24 18 16 16 16 16
11 8 7 8 8 9 9 9 9 9 9 8 8 8 8 8 8 8 8 7 7 8 8 9 9 9 9 9 9 9 9 10 10 11 12 13 14 12 12 12 12 12 13 13 12 13 13 13 14 15 15 14 14 14 25 27 28 32 24 18 18 17 18 17 17 17 17 18 18 20 19 23 28 31 28 34 34 35 34 35 37 35 28 21 17
8 7 7 8 9 9 9 9 9 9 8 8 8 7 8 8 8 8 8 7 8 8 9 9 9 9 9 9 9 9 10 10 11 13 13 12 11 12 12 12 12 13 13 12 13 13 13 13 13 14 15 15 15 20 27 29 29 31 29 21 17 16 15 16 16 16 16 17 19 20 19 18 18 18 18 21 28 34 35 35 36 36 34 36 34
6 7 8 8 8 8 8 8 8 7 7 8 8 8 8 8 8 8 7 8 9 9 9 9 9 9 9 8 9 9 11 12 12 12 11 11 11 12 12 12 12 13 13 13 13 14 14 13 13 15 15 15 14 22 26 29 30 26 26 25 16 16 16 15 16 16 16 16 17 17 17 16 15 26 24 19 19 20 27 33 33 35 36 36 34
7 8 8 9 8 7 7 7 8 8 8 8 7 8 8 8 8 8 8 8 9 9 8 9 9 9 8 8 9 10 11 11 11 11 11 11 11 12 12 12 12 12 12 13 13 14 14 13 13 14 15 15 15 21 27 29 29 30 31 26 18 17 16 16 15 16 16 17 18 16 15 15 17 17 17 19 17 19 18 19 20 20 19 24 30
8 9 9 8 8 8 8 8 8 8 7 7 7 7 7 7 7 8 8 9 8 9 9 8 9 9 9 8 9 10 10 11 11 11 11 12 12 12 12 11 10 11 12 12 12 13 13 13 14 14 14 15 14 24 27 29 28 28 26 27 16 15 14 15 16 17 18 18 18 17 20 20 19 17 15 17 17 18 19 17 18 18 19 19 18
9 9 9 8 8 8 8 9 7 7 7 7 8 7 7 8 7 8 8 8 9 9 9 8 9 9 9 9 10 10 10 10 11 11 11 12 12 12 12 11 11 11 11 12 12 12 14 14 13 14 14 15 15 24 27 28 30 30 31 18 15 15 15 15 16 17 17 17 16 17 17 17 17 17 20 27 26 20 18 18 19 18 17 18 18
10 9 9 7 7 8 8 7 7 8 8 8 7 7 7 8 8 8 8 9 9 9 9 9 9 9 9 9 9 10 10 10 10 11 11 11 12 12 11 10 11 11 12 12 12 12 12 13 14 13 14 14 15 21 27 28 29 31 25 15 16 14 14 16 16 17 16 16 16 17 18 19 17 15 21 27 28 29 18 18 18 18 16 16 18
10 8 8 7 7 7 7 7 8 9 9 8 7 7 7 8 9 8 8 9 9 8 8 8 9 9 9 9 9 10 10 10 10 11 12 11 11 11 11 10 10 12 12 12 12 12 12 12 14 14 14 15 15 20 28 28 29 30 26 17 14 14 15 15 16 17 16 15 17 27 26 18 16 15 23 27 29 25 17 16 17 18 22 20 18
9 9 9 8 8 7 8 8 9 10 9 8 8 8 8 9 9 8 8 8 8 8 8 8 8 9 10 9 9 9 10 10 10 11 11 12 12 11 11 10 10 11 12 12 11 12 12 13 13 14 19 18 15 18 25 25 28 29 24 15 14 14 14 15 16 17 15 14 16 18 26 25 19 18 27 28 29 24 15 15 16 16 18 20 18
8 8 8 8 7 7 8 9 10 10 8 8 7 7 9 10 9 8 9 9 9 8 9 8 9 9 9 9 9 10 10 10 11 11 11 11 11 11 11 10 11 10 11 11 11 12 14 14 14 14 13 14 15 14 17 25 28 29 29 19 14 13 14 16 16 15 14 14 15 15 19 24 26 26 27 27 27 28 20 16 14 15 16 17 15
8 7 6 7 7 7 8 10 9 9 8 7 7 9 10 10 10 10 11 9 8 8 9 9 9 9 10 10 9 9 10 11 10 10 11 11 10 11 11 11 11 11 11 12 13 13 13 14 13 14 13 14 12 14 17 25 27 29 30 25 14 15 14 15 15 13 13 14 14 14 15 23 29 29 29 29 28 26 23 14 11 12 14 16 19
7 7 7 7 7 8 9 10 9 8 8 7 8 10 11 10 10 12 12 8 7 9 9 9 9 10 10 9 10 10 10 10 10 9 10 11 10 10 11 11 10 11 12 13 13 12 12 13 13 13 12 12 13 17 15 21 26 29 29 30 18 15 17 15 13 12 13 13 14 14 15 22 33 33 30 29 29 26 24 14 12 19 24 27 19
7 8 8 7 7 8 9 10 8 8 7 7 8 11 11 11 12 13 9 7 9 9 9 9 9 9 9 10 10 10 10 9 9 10 11 11 11 10 11 11 11 11 12 12 12 11 11 12 12 11 11 12 13 13 18 18 24 27 29 29 30 23 25 16 13 13 13 13 13 14 16 27 30 32 29 29 24 23 19 12 18 21 22 23 18
7 8 8 7 9 9 9 9 8 8 7 7 7 10 11 11 14 9 7 7 9 9 9 9 9 9 9 9 9 10 10 9 10 10 10 11 11 10 10 9 9 10 10 10 10 10 11 11 12 12 12 12 12 12 16 22 20 25 27 29 29 28 26 17 16 12 12 13 13 15 18 28 28 30 29 28 26 21 12 17 18 20 19 18 10
8 8 8 7 8 10 9 10 9 9 8 8 7 9 11 14 12 7 7 8 9 9 8 9 9 9 9 9 8 9 10 10 9 9 10 10 10 9 9 9 9 9 9 10 10 9 10 11 11 12 13 12 12 13 13 17 23 22 25 27 29 28 24 24 16 12 11 13 18 25 25 24 26 27 27 23 18 17 21 18 15 15 14 7 6
8 8 8 8 8 9 9 10 10 9 9 7 7 8 13 12 9 7 8 9 9 8 8 9 8 9 9 9 9 10 10 10 10 9 9 9 9 8 8 9 8 9 9 9 10 9 10 10 11 12 13 13 13 13 13 13 15 16 18 25 28 23 21 22 19 13 19 23 22 21 22 21 20 20 16 13 12 13 18 17 17 14 6 5 5
10 10 8 7 7 8 9 10 11 9 7 7 8 8 9 9 8 8 9 8 8 8 9 8 8 9 9 8 8 8 9 9 9 8 8 8 8 8 8 9 9 9 9 9 10 10 10 11 12 12 13 13 13 13 12 12 12 13 13 17 16 14 18 18 13 11 13 13 14 13 13 16 15 21 20 17 15 16 13 12 10 9 8 7 5
9 9 8 8 8 9 9 10 10 9 7 7 7 8 8 8 7 8 9 8 8 8 8 8 9 8 8 8 8 10 10 9 9 8 9 9 9 8 8 9 9 9 9 9 10 10 11 12 12 13 12 12 12 12 12 12 14 14 15 15 13 13 13 13 12 12 12 12 11 12 12 9 10 11 12 11 11 11 11 11 10 9 8 9 10
9 9 8 8 8 9 9 10 10 8 7 7 9 9 8 8 8 9 8 8 8 9 8 9 8 7 8 8 8 8 8 8 9 9 9 9 9 9 9 10 10 9 10 10 11 12 12 12 12 12 12 12 11 12 12 17 20 23 20 15 13 12 13 12 14 19 13 10 8 9 9 10 10 11 11 11 11 11 11 11 11 11 9 9 8
9 7 8 9 9 10 10 10 10 8 8 8 9 9 8 7 7 8 8 8 8 8 8 9 8 7 8 7 7 7 8 8 8 9 9 10 12 16 14 11 11 14 19 22 19 14 13 11 10 10 10 11 12 13 20 23 20 23 27 23 21 22 20 16 18 18 11 8 8 8 9 9 10 10 11 11 12 11 11 11 10 11 10 9 9
8 8 9 9 9 9 9 9 9 8 8 8 8 9 8 7 8 8 7 8 8 7 8 8 7 8 8 7 7 8 8 8 8 9 9 10 11 10 15 19 18 17 17 21 18 17 16 15 12 11 12 19 20 20 18 20 23 20 25 23 21 20 20 18 18 12 8 8 8 8 9 9 9 9 9 10 11 11 11 11 10 10 9 9 9
Wind_Direction
81 75 70 68 65 63 61 59 58 57 51 47 47 44 41 36 34 34 26 23 20 16 18 16 15 9 10 12 6 1 6 5 8 13 7 7 5 4 360 4 358 355 357 353 350 346 342 340 339 341 340 334 331 328 325 318 318 313 309 306 300 295 288 284 287 293 294 290 280 282 285 276 264 258 261 255 250 246 241 243 238 236 240 243 241
85 75 68 64 61 60 58 55 47 49 46 45 44 40 38 35 35 31 25 24 25 21 16 20 22 15 360 358 356 350 358 2 4 5 5 2 4 3 0 2 358 357 356 354 353 351 346 342 342 342 344 339 332 325 321 322 320 324 320 310 302 296 292 292 294 299 285 293 307 304 294 283 270 242 248 249 249 234 223 225 235 242 248 248 244
82 75 69 66 62 56 55 52 49 49 48 46 42 39 36 34 31 29 28 25 26 21 18 18 15 12 2 351 353 344 355 6 1 2 4 2 3 4 360 2 356 354 355 354 357 352 352 353 349 347 347 344 337 334 335 337 337 335 330 319 313 300 290 285 278 273 288 300 294 294 294 310 291 263 235 236 221 219 231 244 243 250 247 240 222
80 73 68 63 59 57 53 50 48 47 45 43 38 35 33 30 27 27 29 29 26 22 17 14 15 2 353 347 341 343 344 353 356 2 2 0 3 6 1 358 352 351 350 353 358 353 357 354 349 348 344 346 340 336 337 340 342 337 335 324 313 305 299 297 300 289 285 305 297 289 305 307 301 286 295 257 227 243 255 253 226 219 213 208 228
85 76 69 63 60 55 53 50 47 46 44 42 38 30 27 28 25 26 28 27 27 22 17 11 0 359 354 350 350 349 351 359 355 358 5 359 0 1 353 350 347 348 345 352 356 349 356 359 355 346 343 340 338 334 330 332 333 332 331 325 320 311 306 300 297 291 281 272 280 295 289 271 268 298 323 294 279 256 246 229 219 225 232 235 239
78 75 70 66 64 61 54 47 44 41 40 43 42 31 26 29 28 26 28 27 24 25 19 8 359 1 356 359 358 357 356 358 2 353 353 356 358 347 343 345 346 346 347 351 353 356 0 352 344 337 332 330 329 325 317 318 321 325 326 322 314 312 305 298 295 294 284 272 259 259 271 285 301 303 309 294 278 264 265 246 257 252 239 228 232
79 76 70 66 62 61 53 45 39 38 33 34 38 29 29 32 31 28 28 25 22 23 17 6 0 3 360 359 351 351 350 348 360 348 353 347 344 339 338 338 342 345 347 346 355 5 353 344 340 336 331 328 325 319 316 319 319 320 314 310 308 306 304 297 298 297 293 280 265 261 263 266 275 287 281 296 292 283 265 271 258 252 250 247 245
83 76 71 65 60 56 53 46 39 33 23 24 32 27 30 30 30 29 26 24 23 16 14 9 3 -0 356 357 352 349 353 341 353 350 347 340 340 337 338 336 340 346 347 343 354 360 352 346 342 338 335 330 326 321 323 324 320 311 311 306 300 295 294 294 296 298 293 290 286 282 275 271 268 265 265 271 279 291 284 268 267 264 256 254 253
75 73 66 59 57 56 52 48 40 29 19 18 26 28 28 28 28 29 27 24 16 15 14 7 8 358 355 354 351 344 348 347 350 343 343 341 340 338 340 337 339 343 345 342 344 354 352 343 340 339 335 331 326 323 323 319 315 315 314 312 308 305 300 293 290 285 284 284 290 281 277 275 273 269 270 263 266 275 277 281 278 269 267 254 253
74 73 68 62 58 61 63 61 45 33 18 17 26 27 28 26 24 23 27 22 15 11 8 4 4 357 357 352 350 344 352 346 345 345 346 344 341 341 341 339 338 338 341 341 342 345 345 340 337 335 331 327 323 321 316 316 319 316 314 311 309 304 296 291 287 288 286 285 281 284 281 279 273 270 261 261 263 260 271 279 281 285 277 267 266
81 80 77 71 62 55 56 47 48 34 26 22 24 23 21 21 16 17 23 19 14 11 6 0 359 356 356 349 346 343 350 343 344 346 346 346 341 340 338 337 334 334 335 332 339 338 339 334 332 329 324 321 320 317 318 317 314 314 312 310 307 306 302 300 294 288 284 281 278 273 272 271 271 271 269 267 263 266 270 271 272 269 271 278 266
106 100 77 59 50 45 42 41 32 26 23 21 16 17 15 12 10 9 12 17 9 6 5 360 355 353 350 344 342 338 347 340 344 343 343 342 337 334 332 330 330 331 327 329 329 338 333 329 326 324 322 320 318 316 312 312 311 309 307 307 306 304 301 298 291 289 286 283 280 276 272 271 268 265 269 266 265 267 267 272 274 279 276 270 276
141 137 117 90 46 23 29 28 23 20 19 12 6 9 8 2 5 3 3 9 3 358 359 356 351 350 346 339 337 332 335 336 337 338 339 337 332 329 328 326 327 326 324 327 324 333 328 324 324 323 320 317 314 312 309 310 308 306 305 304 300 298 294 292 293 290 290 285 285 285 283 281 276 275 272 269 268 267 267 271 270 271 273 276 273
183 168 151 125 77 50 43 34 25 14 12 7 1 2 2 352 358 356 355 358 356 352 353 351 346 344 341 335 331 325 326 328 332 335 337 333 325 326 323 322 320 318 321 321 324 325 321 319 317 315 312 310 311 310 308 307 306 304 302 301 299 294 290 288 283 284 282 283 284 282 279 277 277 276 273 270 267 266 264 264 273 270 267 273 277
188 172 158 122 101 75 59 42 26 10 5 5 358 356 354 348 351 347 345 348 350 345 345 346 343 339 338 333 330 322 321 323 327 335 335 326 321 317 315 317 316 314 318 316 319 316 316 315 315 314 311 310 309 308 307 307 306 302 299 295 293 295 293 290 285 285 283 281 279 277 277 273 273 272 271 269 267 263 264 266 267 272 271 268 271
185 166 150 134 113 105 79 63 25 7 357 358 357 351 351 344 343 340 336 336 340 337 338 340 340 335 329 332 328 323 313 315 320 329 328 319 316 316 312 313 313 313 312 313 315 314 313 313 312 309 308 306 305 305 305 304 304 302 296 293 293 292 292 289 288 285 283 282 281 281 280 278 278 276 271 269 268 266 263 262 262 262 267 272 269
190 185 181 179 149 139 123 85 23 1 352 351 352 345 347 338 335 336 327 327 328 330 329 330 336 329 324 328 326 322 311 309 316 325 325 319 313 313 313 311 311 311 313 312 308 310 308 308 307 306 305 305 303 301 300 299 300 297 293 292 290 289 288 287 284 283 282 284 282 282 279 279 279 282 283 279 275 269 266 264 259 259 260 264 268
193 202 201 185 174 161 159 134 15 0 347 334 346 338 339 334 334 333 328 325 324 324 322 325 329 326 323 323 324 321 312 308 316 323 322 318 316 313 312 312 311 311 308 304 305 306 305 304 303 302 301 299 298 298 297 296 295 291 289 287 286 288 286 283 281 281 282 283 281 279 280 279 280 280 278 279 280 280 275 268 263 260 255 256 259
208 212 215 217 193 185 168 280 331 342 346 327 340 328 329 328 326 329 327 322 320 320 318 320 323 320 319 318 319 319 316 310 314 318 316 314 312 311 308 307 307 307 305 304 304 303 302 303 301 299 299 297 297 296 297 295 293 291 289 286 285 286 285 285 284 284 283 281 281 280 280 280 283 282 281 279 276 273 271 270 266 260 258 255 256
217 227 222 201 196 189 210 303 312 330 338 328 331 325 313 313 312 316 319 312 311 311 311 312 312 312 310 312 310 311 312 311 311 314 312 310 309 308 307 307 308 307 301 301 302 301 302 300 299 299 297 297 296 295 295 294 292 288 288 289 289 289 286 285 286 283 283 282 282 282 280 280 283 285 284 281 279 276 270 266 267 265 260 256 256
245 220 213 206 198 215 230 271 301 296 320 313 312 310 298 293 286 293 304 305 307 309 310 310 312 307 308 309 310 308 307 306 308 309 307 306 308 308 308 310 308 304 304 302 299 300 299 299 298 297 296 296 297 295 294 292 289 288 288 288 288 286 284 284 285 285 282 282 281 281 283 282 284 283 281 282 279 277 276 272 267 266 264 260 256
250 222 214 216 214 229 249 260 281 276 296 299 293 297 297 293 288 295 299 303 308 312 313 312 311 307 307 309 308 308 307 311 311 310 309 309 310 310 309 308 302 300 303 300 298 298 300 299 298 294 293 292 292 291 290 288 288 289 288 287 287 286 284 283 283 281 282 282 284 284 281 281 281 279 278 277 276 276 274 270 266 263 265 265 257
224 217 223 222 227 236 259 263 265 269 270 290 293 299 301 298 292 291 299 303 310 307 308 310 309 305 306 307 307 308 313 313 313 311 308 308 307 306 305 302 300 300 300 299 299 299 298 297 295 293 292 291 291 290 290 289 288 287 288 286 285 287 285 284 284 284 284 283 277 275 276 277 276 277 277 274 273 271 270 269 269 266 262 260 261
212 218 227 222 230 243 252 254 267 272 286 305 306 301 303 301 297 297 300 306 308 308 308 310 308 306 308 308 308 310 311 309 310 307 304 304 306 304 302 302 300 300 300 299 299 299 297 295 293 293 292 291 291 290 293 292 286 282 281 281 283 283 282 279 278 277 276 274 273 273 271 270 271 272 274 275 275 275 276 275 272 268 265 262 258
207 219 227 222 233 239 249 262 273 294 309 309 304 305 305 304 301 302 303 306 307 309 311 312 311 310 309 309 307 307 305 304 303 302 302 305 305 304 303 302 302 301 301 301 300 299 297 296 295 295 296 294 292 294 290 283 281 279 278 278 277 276 274 273 272 271 270 268 267 265 266 266 263 265 266 267 267 268 268 269 270 274 278 279 270
247 225 230 231 237 246 261 280 298 308 305 300 299 301 303 302 303 305 305 308 309 310 310 310 308 306 304 302 301 301 301 301 302 301 303 304 303 302 302 301 302 301 301 300 299 300 300 299 297 296 296 296 294 289 284 282 280 280 278 276 273 271 270 270 270 268 266 264 262 261 262 262 260 256 257 260 260 260 262 263 266 267 269 269 276
250 232 242 242 243 255 279 292 295 294 288 286 291 294 297 298 297 299 299 300 301 302 301 300 298 297 295 295 297 298 299 300 301 302 303 302 302 302 302 302 303 301 301 300 299 299 300 300 297 296 294 291 289 286 283 282 281 279 277 274 272 271 270 269 266 264 262 261 259 258 258 255 251 249 250 251 252 252 254 259 258 260 261 264 265
258 236 237 244 256 271 282 290 287 284 283 279 281 283 288 291 292 293 293 291 292 295 295 292 292 291 291 293 295 297 297 298 301 301 300 301 302 302 303 303 304 306 304 303 303 300 299 296 295 292 291 290 288 286 283 281 279 277 274 272 271 271 269 267 266 264 261 258 256 254 253 254 247 247 249 250 249 252 254 255 253 252 256 261 260
285 253 244 240 252 275 287 284 283 283 280 278 279 281 284 286 285 285 287 286 290 290 289 290 291 290 293 297 298 298 297 299 301 302 302 304 305 304 303 305 307 305 303 299 297 295 295 293 290 289 289 288 285 282 281 277 277 275 268 265 264 260 259 259 259 258 257 256 255 255 250 252 246 240 242 245 248 241 243 250 250 247 249 253 257
285 270 251 242 259 274 278 279 280 281 278 275 275 279 283 285 286 287 283 284 290 288 289 290 289 290 293 296 295 295 297 299 301 302 304 306 306 307 307 306 302 299 297 298 295 292 289 289 290 289 288 286 283 280 276 276 276 274 270 263 256 254 253 251 253 255 256 255 250 251 253 252 250 248 245 249 252 251 250 248 249 249 249 250 253
284 264 244 255 268 271 271 273 276 279 278 272 273 278 281 280 280 281 280 282 287 287 284 283 285 289 290 292 293 293 295 299 301 305 308 308 306 305 301 296 296 294 293 293 290 290 289 288 287 287 287 286 282 279 279 283 285 285 285 281 279 271 263 259 257 260 260 260 258 255 252 251 253 251 249 251 253 253 253 252 251 249 246 241 248
274 253 253 263 266 264 268 273 278 279 273 267 269 276 280 279 280 278 281 284 283 281 281 282 284 288 289 291 293 295 298 300 306 308 306 302 299 297 295 294 294 293 294 293 289 285 284 286 286 284 282 282 283 281 284 288 290 290 289 287 283 279 275 272 261 254 255 259 264 263 257 254 245 233 235 245 249 251 251 252 252 252 254 250 242
255 253 259 264 268 269 271 273 277 272 265 262 267 272 275 281 279 278 282 281 279 279 281 281 284 287 289 292 293 295 299 304 306 303 301 300 297 296 294 295 294 294 293 289 287 288 286 285 284 285 285 284 283 285 288 291 293 292 289 289 287 285 279 266 261 257 254 256 262 263 260 254 241 250 252 246 248 247 247 250 251 255 255 253 255
250 251 259 270 269 268 270 270 272 274 265 261 261 268 275 277 276 276 275 278 279 279 279 282 283 285 289 290 293 299 298 295 299 299 297 295 294 291 292 293 293 292 289 289 289 287 287 285 285 284 284 286 285 287 292 294 295 298 299 301 300 295 292 288 283 278 276 273 268 263 259 258 260 250 247 247 244 247 249 250 250 253 254 256 257
256 261 261 262 264 268 271 269 271 270 262 259 264 268 273 272 272 274 276 278 278 279 278 281 284 287 288 289 295 295 291 293 294 294 294 291 290 291 292 292 293 291 290 289 290 292 288 286 285 284 284 286 284 290 296 299 301 301 300 306 306 302 299 298 295 290 286 284 281 286 282 269 265 252 246 242 240 244 248 247 248 248 251 253 249
269 274 271 266 265 267 268 270 272 267 256 253 262 270 271 271 273 275 278 279 280 278 279 282 285 286 286 291 297 291 292 292 293 293 292 291 292 292 293 294 292 290 289 288 287 286 287 287 285 286 286 286 285 294 301 303 305 306 309 312 307 303 302 299 296 297 293 296 298 299 292 280 263 250 248 250 251 249 246 247 247 248 250 250 250
275 267 262 259 261 260 265 267 262 257 254 254 262 266 267 269 270 272 275 274 273 273 275 280 282 283 287 293 292 290 290 291 292 292 291 292 294 295 295 295 293 291 292 291 289 290 290 291 291 290 288 286 289 296 302 305 306 307 310 308 306 305 304 302 299 298 299 305 306 300 298 289 271 252 252 257 258 255 251 250 250 251 249 249 254
263 259 250 246 249 253 254 254 258 255 251 256 258 261 263 267 268 272 273 271 269 269 274 279 280 283 290 288 287 288 286 288 290 289 290 292 293 292 290 294 291 293 291 290 293 293 292 290 291 289 287 288 290 295 301 304 306 306 310 311 308 306 303 303 301 300 303 306 305 304 305 296 274 255 257 260 259 255 252 251 251 253 253 255 255
246 245 251 252 249 248 253 258 257 256 255 252 254 256 260 263 268 268 269 270 268 269 274 278 281 287 288 285 283 282 282 285 287 287 289 289 290 290 291 291 288 289 288 291 292 293 294 293 288 286 286 287 286 288 296 302 305 308 312 312 311 309 305 304 306 307 310 311 310 309 308 306 292 265 258 258 258 259 253 250 248 249 253 256 258
240 238 239 246 247 246 248 250 255 259 262 260 255 254 259 269 270 272 270 266 265 270 277 280 284 284 282 284 283 283 282 284 286 288 288 286 288 289 290 292 291 290 291 293 293 293 293 290 289 286 284 282 283 283 291 301 307 311 314 315 313 310 308 308 310 314 316 314 314 314 312 314 304 294 286 276 271 270 264 257 253 256 257 257 256
251 244 233 242 241 238 249 258 264 265 263 260 252 263 266 267 271 272 265 262 266 276 280 279 280 278 277 279 283 283 284 284 283 284 287 286 286 287 291 290 291 290 289 292 291 290 290 288 289 289 287 284 279 288 296 303 306 311 314 316 314 311 309 312 317 319 317 317 318 316 318 314 311 302 291 286 283 279 274 262 248 246 252 259 257
233 228 229 247 245 246 255 261 261 261 257 255 252 264 262 264 261 261 262 265 270 278 275 272 274 276 276 279 282 283 283 283 283 284 284 284 284 284 285 286 286 288 287 284 286 288 290 290 293 293 288 289 294 296 299 301 306 311 314 316 318 313 317 323 323 320 318 320 319 320 318 317 317 316 312 298 286 281 276 272 261 255 254 257 257
251 247 233 231 252 254 256 260 264 261 256 256 252 263 264 262 260 262 265 265 277 273 269 267 269 272 273 276 280 281 284 283 282 283 282 282 285 285 286 285 282 282 281 282 284 285 290 292 296 300 300 300 299 299 301 303 306 310 313 317 319 319 325 331 326 321 321 317 319 316 317 321 323 324 325 325 317 294 280 275 267 263 265 269 271
250 242 245 239 252 257 258 261 263 260 255 253 250 261 259 258 264 267 263 269 274 267 266 265 265 266 272 277 279 281 282 281 282 285 283 279 282 283 286 286 285 285 289 291 293 298 298 296 301 304 306 306 306 304 305 307 306 309 314 319 322 324 328 331 324 318 318 316 317 316 323 328 332 331 331 331 329 326 310 282 270 271 275 281 280
267 255 248 242 248 257 262 265 263 262 258 253 243 249 253 259 262 263 258 269 269 265 260 260 263 270 273 276 279 282 286 283 281 281 282 283 282 285 288 291 290 286 286 288 293 295 296 299 302 306 308 308 309 308 307 307 309 310 316 320 321 323 327 325 321 319 316 316 316 321 327 331 334 334 336 337 334 333 338 347 328 298 289 288 284
255 256 246 240 249 254 258 263 266 263 260 249 244 246 256 254 260 259 264 269 263 258 257 259 264 269 270 274 279 284 283 281 281 279 273 275 280 283 284 291 289 286 286 289 293 297 297 299 303 306 306 308 309 308 306 309 312 315 315 316 319 322 322 320 322 321 322 319 319 321 324 330 333 332 334 339 339 336 344 351 354 347 312 285 275
264 264 258 258 255 257 257 261 269 269 259 251 249 246 246 255 256 259 269 262 256 253 260 263 263 270 275 273 277 283 290 291 285 283 281 280 279 279 281 286 287 290 290 293 294 298 300 301 305 307 308 309 310 308 308 310 315 316 316 316 321 324 324 324 327 329 326 322 318 321 324 328 331 327 330 337 341 345 349 353 354 349 344 333 294
261 260 250 255 253 253 259 262 266 270 262 257 256 255 255 251 252 259 265 258 254 252 258 262 264 269 275 277 275 275 276 282 284 284 288 293 289 278 275 282 294 293 293 291 295 297 300 303 305 307 308 308 307 308 307 312 313 316 314 317 322 327 330 330 335 335 328 322 320 321 330 339 338 336 336 338 346 347 349 350 351 349 348 344 342
263 259 246 249 258 257 256 261 262 267 266 260 260 263 261 256 260 267 260 251 255 258 257 262 263 263 264 267 271 272 273 278 282 280 274 276 280 283 277 277 271 266 268 279 289 292 291 294 301 304 308 305 306 306 307 306 306 312 320 324 331 331 332 330 341 341 331 328 330 336 343 345 347 343 339 341 344 346 347 347 349 352 354 352 352
265 260 250 252 248 251 257 256 262 266 263 260 263 263 257 255 255 262 255 247 252 259 260 260 256 258 264 266 270 274 277 279 280 284 286 284 276 270 265 263 273 275 280 283 283 283 291 302 306 306 305 305 303 303 306 312 314 322 329 337 336 333 333 336 349 347 338 335 342 342 347 345 346 344 343 344 343 344 344 345 347 350 353 353 353
273 268 261 253 255 252 253 255 260 260 258 259 262 262 257 250 260 257 243 237 242 253 257 261 255 259 264 270 276 279 280 282 283 282 283 286 296 288 280 282 282 283 285 287 294 297 306 318 316 313 311 307 307 310 313 314 321 326 336 337 336 333 333 342 360 351 345 347 344 345 344 348 345 343 344 341 340 340 342 341 342 343 345 348 349